Plattsburgh, NY

1:15 AM EST on December 16, 2019 (GMT -0500)
Plattsburgh International

Weather History for KPBG - October, 2019

Change the Weather History Date:

Thursday, October 10, 2019

  Actual Average Record
Temperature  
Mean Temperature 54 °F 49 °F  
Max Temperature 66 °F 59 °F 81 °F (1955)
Min Temperature 41 °F 40 °F 25 °F (1972)
Degree Days  
Heating Degree Days 11 16  
Month to date heating degree days 141 140  
Since 1 July heating degree days 333 375  
Cooling Degree Days 0 0  
Month to date cooling degree days 0 0  
Year to date cooling degree days 406 345  
Growing Degree Days 4 (Base 50)    
Moisture  
Dew Point 41 °F    
Average Humidity 70    
Maximum Humidity 93    
Minimum Humidity 34    
Precipitation  
Precipitation 0.00 in - 0.54 in (1967)
Month to date precipitation 1.38 0.00  
Year to date precipitation 23.00  
Sea Level Pressure  
Sea Level Pressure 30.37 in    
Wind  
Wind Speed 2 mph ()    
Max Wind Speed 14 mph    
Max Gust Speed 16 mph    
Visibility 10.0 miles    
Events      
T = Trace of Precipitation, MM = Missing Value Source: Averaged Metar Reports

Daily Weather History Graph

Daily Weather History Graph

Search for Another Location

Airport or City:

Astronomy

Oct. 10, 2019 Rise Set
Actual Time 7:02 AM EDT 6:18 PM EDT
Civil Twilight 6:33 AM EDT 6:47 PM EDT
Nautical Twilight 5:59 AM EDT 7:21 PM EDT
Astronomical Twilight 5:25 AM EDT 7:55 PM EDT
Moon 5:28 PM EDT (10/10) 3:32 AM EDT (10/10)
Length of Visible Light 12h 14m
Length of Day
11h 15m
Waxing Gibbous, 91% of the Moon is Illuminated
Oct 10
Waxing Gibbous
Oct 13
Full
Oct 21
Last Quarter
Oct 27
New
Nov 4
First Quarter

Hourly Weather History & Observations

Time (EDT) Temp. Dew Point Humidity Pressure Visibility Wind Dir Wind Speed Gust Speed Precip Events Conditions
12:53 AM 43.0 °F 41.0 °F 93% 30.38 in 10.0 mi Calm Calm - N/A   Clear
1:53 AM 44.1 °F 41.0 °F 89% 30.38 in 10.0 mi Calm Calm - N/A   Clear
2:53 AM 45.0 °F 41.0 °F 86% 30.37 in 10.0 mi Calm Calm - N/A   Clear
3:53 AM 43.0 °F 41.0 °F 93% 30.38 in 10.0 mi Calm Calm - N/A   Clear
4:53 AM 43.0 °F 41.0 °F 93% 30.37 in 10.0 mi Calm Calm - N/A   Clear
5:53 AM 42.1 °F 39.9 °F 92% 30.38 in 10.0 mi Calm Calm - N/A   Clear
6:53 AM 41.0 °F 39.0 °F 93% 30.39 in 10.0 mi Calm Calm - N/A   Clear
7:53 AM 42.1 °F 39.0 °F 89% 30.40 in 10.0 mi Calm Calm - N/A   Clear
8:53 AM 46.0 °F 42.1 °F 86% 30.41 in 10.0 mi Calm Calm - N/A   Clear
9:53 AM 53.1 °F 44.1 °F 71% 30.42 in 10.0 mi North 4.6 mph - N/A   Clear
10:53 AM 54.0 °F 42.1 °F 64% 30.41 in 10.0 mi North 5.8 mph - N/A   Clear
11:53 AM 55.9 °F 43.0 °F 62% 30.40 in 10.0 mi NNW 4.6 mph - N/A   Clear
12:53 PM 60.1 °F 42.1 °F 51% 30.38 in 10.0 mi NW 4.6 mph - N/A   Clear
1:53 PM 63.0 °F 42.1 °F 46% 30.37 in 10.0 mi NW 6.9 mph - N/A   Clear
2:53 PM 64.9 °F 41.0 °F 42% 30.35 in 10.0 mi North 6.9 mph - N/A   Clear
3:53 PM 66.9 °F 37.9 °F 34% 30.33 in 10.0 mi North 9.2 mph - N/A   Clear
4:53 PM 64.9 °F 41.0 °F 42% 30.33 in 10.0 mi NNE 6.9 mph - N/A   Clear
5:53 PM 64.0 °F 42.1 °F 45% 30.34 in 10.0 mi North 10.4 mph - N/A   Clear
6:53 PM 57.9 °F 42.1 °F 56% 30.34 in 10.0 mi NW 5.8 mph - N/A   Clear
7:53 PM 55.9 °F 42.1 °F 60% 30.34 in 10.0 mi NNW 8.1 mph - N/A   Clear
8:53 PM 53.1 °F 42.1 °F 66% 30.35 in 10.0 mi NW 5.8 mph - N/A   Clear
9:53 PM 48.9 °F 43.0 °F 80% 30.34 in 10.0 mi WNW 4.6 mph - N/A   Clear
10:53 PM 48.9 °F 41.0 °F 74% 30.34 in 10.0 mi Calm Calm - N/A   Clear
11:53 PM 48.0 °F 39.9 °F 74% 30.34 in 10.0 mi WNW 6.9 mph - N/A   Clear